Погода в Огаревке

Россия / Тульская область     53°56′21″N   37°34′17″E
темп.,
°C
ветер,
м/с
пор.,
м/с
влажн.,
%
обл.,
%
осадки,
мм/ч
давл.,
гПа
погр.,
м
8 марта, пн
пн800:00−8зюз513840 0.0 999280
03:00−8зюз6148615 0.0 1000346
06:00−8зюз7158870 0.0 999491
09:00−6з8138984 0.1 1000947
12:00−6зсз81180100 0.1 10021063
15:00−5зсз578392 0.1 1005835
18:00−8зсз348987 0.0 100743
21:00−10зсз239166 0.0 100932
9 марта, вт
вт900:00−12сз239577 0.0 101021
03:00−13с359687 0.1 1012144
06:00−16ссз359787 0.1 101490
09:00−15ссз479582 0.1 1016266
12:00−12ссз478995 0.0 1017543
15:00−10сз578598 0.1 1018758
18:00−13сз3689100 0.0 1019120
21:00−17сз349064 0.0 102272
10 марта, ср
ср1000:00−19ссз23968 0.0 102320
03:00−21ссз23988 0.0 102520
06:00−21ссз129833 0.0 102520
09:00−18св229067 0.0 1027168
12:00−15всв2381100 0.0 1027317
15:00−14всв3378100 0.0 1027441
18:00−16в3489100 0.0 102774
21:00−21в339059 0.0 102925
11 марта, чт
чт1100:00−23в23910 0.0 103020
03:00−23в22930 0.0 103220
06:00−24в22927 0.0 103220
09:00−20вюв228911 0.0 103385
12:00−15юв23770 0.0 1033318
15:00−13ююв33740 0.0 1033407
18:00−17ююв33860 0.0 103226
21:00−21ююв34900 0.0 103332
12 марта, пт
пт1200:00−21ююв44910 0.0 103377
03:00−22ю47900 0.0 1032122
06:00−21ююв511830 0.0 1031196
09:00−16ю7128926 0.0 1029315
12:00−10ю81485100 0.0 1027484
15:00−7ю91584100 0.0 1024720
18:00−7ю91784100 0.0 1021949
21:00−6ю111891100 0.4 10191044